Starlink 2329

operational
NORAD ID: 47873 Int'l Des: 2021-021 Owner: SPXS Country: US Constellation: starlink
LEOCIRCULARSTARLINK_TYPE

Über Starlink 2329

Beschreibung wird geladen...

Live-Position

3D-Globus wird geladen...

Nächste Überflüge

Höhenverlauf

Altitude vs Time

uPlot chart will show altitude changes over time

Zweizeiliger Elementsatz

1 47873U 21021P 25349.95535489 .00006709 00000-0 46887-3 0 9994
2 47873 53.0553 277.5170 0001385 89.3737 270.7411 15.06397346263709
Epoch: 15. Dez. 2025 • Age: 9 hours

Aktueller Status

Höhe 555.4 km
Geschwindigkeit 7.58 km/s
Subsatellitenpunkt -26.02°S, 44.07°E
Startdatum 14. März 2021
Alter 4.7 years
Typ internet

Technische Details

Klassifizierung Payload
Masse 260.00 kg
Trockenmasse 248.00 kg
Gesamtmasse 260.00 kg
Länge 0.20 m
Durchmesser 2.80 m
Spannweite 9.00 m
Form Box + pan
Hersteller SPXS
Bus-Typ Starlink
Phasenstatus In Orbit
Besitzer/Staat SPXS/US

Große Konstellationen

Loading constellations...